User: anonymous   Login
Location: Mauna Kea VIS
(19.7591°N, 155.4561°W)
Time: 12:31:43
(UTC-10:00)
Language:

Cosmos 1624 Rocket - Orbit

View from above orbital plane
View from above orbital plane
View from above satellite
View from above satellite

Ground track
Ground track

The orbit data is extracted from the following two-line orbital elements,

1 15483U 85006B   16269.07719663 -.00000005  00000-0  73309-5 0  9996
2 15483  74.0444 121.7837 0018704 171.2633 351.3321 14.36138404658492
Epoch (UTC): 25 September 2016 01:51:09
Eccentricity: 0.0018704
inclination: 74.0444°
perigee height: 758 km
apogee height: 784 km
right ascension of ascending node: 121.7837°
argument of perigee: 171.2633°
revolutions per day: 14.36138404
mean anomaly at epoch: 351.3321°
orbit number at epoch: 65849

The dashed part of the orbit path shows where the satellite is in the earth's shadow,  

DLR